E8826 Weather Reports


time (UTC)temp
C
wind
direction
speed
KPH
gust
KPH
rain 1hr
cm
rain 24hr
cm
rain mn
cm
humidity
%
barometer
mb
20260507052455 7 38 4.8 14.5 0.00 0.00 0.00 91 1015.1
20260507051454 7 31 6.4 9.7 0.00 0.00 0.00 91 1015.0
20260507050455 6 31 3.2 14.5 0.00 0.00 0.00 91 1014.9
20260507045454 6 36 6.4 14.5 0.00 0.00 0.00 92 1014.9
20260507044457 -17 33 8.0 11.3 0.00 0.00 0.00 1014.8
20260507043455 -17 22 3.2 9.7 0.00 0.00 0.00 1014.8
20260507042455 -17 16 4.8 9.7 0.00 0.00 0.00 1014.7
20260507041455 -17 26 4.8 9.7 0.00 0.00 0.00 1014.6
20260507040455 -17 26 4.8 8.0 0.00 0.00 0.00 1014.6
20260507035456 -17 22 3.2 9.7 0.00 0.00 0.00 1014.6
20260507034455 -17 0 3.2 6.4 0.00 0.00 0.00 1014.5
20260507033456 -17 23 3.2 8.0 0.00 0.00 0.00 1014.4
20260507032455 -17 19 3.2 8.0 0.00 0.00 0.00 1014.4
20260507031458 -17 14 3.2 8.0 0.00 0.00 0.00 1014.3
20260507030454 -17 339 3.2 6.4 0.00 0.00 0.00 1014.3
20260507025456 -17 346 3.2 6.4 0.00 0.00 0.00 1014.1
20260507024455 -17 348 3.2 9.7 0.00 0.00 0.00 1014.2
20260507023456 -17 352 3.2 8.0 0.00 0.00 0.00 1014.2
20260507022454 -17 34 3.2 8.0 0.00 0.00 0.00 1014.0
20260507021455 -17 34 3.2 8.0 0.00 0.00 0.00 1013.9
20260507020456 -17 19 3.2 9.7 0.00 0.00 0.00 1013.8
20260507015456 -17 358 3.2 6.4 0.00 0.00 0.00 1013.8
20260507014936 -17 13 3.2 8.0 0.00 0.00 0.00 1013.8
20260507013930 -17 13 3.2 9.7 0.00 0.00 0.00 1013.8
20260507012452 -17 17 4.8 9.7 0.00 0.00 0.00 1013.9
20260507011450 -17 13 4.8 9.7 0.00 0.00 0.00 1013.8
20260507010450 -17 19 3.2 9.7 0.00 0.00 0.00 1013.8
20260507005920 -17 34 3.2 8.0 0.00 0.00 0.00 1013.8
20260507004448 -17 22 3.2 8.0 0.00 0.00 0.00 1013.8
20260507003934 -17 341 3.2 9.7 0.00 0.00 0.00 1013.8
20260507002446 -17 30 3.2 8.0 0.00 0.00 0.00 1013.8
20260507001444 -17 334 4.8 9.7 0.00 0.00 0.00 1013.8
20260507000442 -17 38 3.2 9.7 0.00 0.00 0.00 1013.7
20260506235441 -17 19 1.6 8.0 0.00 0.00 0.00 1013.8
20260506234441 -17 352 3.2 8.0 0.00 0.00 0.00 1013.8
20260506233439 -17 14 3.2 11.3 0.00 0.00 0.00 1013.7
20260506232441 6 37 4.8 11.3 0.00 0.00 0.00 91 1013.8
20260506231438 6 29 3.2 6.4 0.00 0.00 0.00 90 1013.8
20260506230452 -17 356 3.2 9.7 0.00 0.00 0.00 1013.8
20260506225439 6 19 3.2 8.0 0.00 0.00 0.00 89 1013.7
20260506224437 -17 19 3.2 8.0 0.00 0.00 0.00 1013.6
20260506223437 -17 26 3.2 14.5 0.00 0.00 0.00 1013.6
20260506222436 6 19 3.2 9.7 0.00 0.00 0.00 89 1013.6
20260506221432 6 335 3.2 9.7 0.00 0.00 0.00 89 1013.5
20260506221214 6 26 4.8 9.7 0.00 0.00 0.00 89 1013.5
20260506215432 -17 14 6.4 11.3 0.00 0.00 0.00 1013.4
20260506214433 7 7 6.4 11.3 0.00 0.00 0.00 89 1013.4
20260506213433 7 26 6.4 14.5 0.00 0.00 0.00 89 1013.5
20260506212433 7 27 4.8 14.5 0.00 0.00 0.00 89 1013.5
20260506211434 7 341 3.2 9.7 0.00 0.00 0.00 90 1013.2
20260506210431 7 33 6.4 11.3 0.00 0.00 0.00 90 1013.2
20260506205431 7 38 6.4 14.5 0.00 0.00 0.00 90 1013.2
20260506204912 7 20 6.4 16.1 0.00 0.00 0.00 89 1013.2
20260506203431 7 30 6.4 14.5 0.00 0.00 0.00 89 1013.2
20260506202432 7 12 4.8 11.3 0.00 0.00 0.00 89 1013.2
20260506201432 7 29 3.2 11.3 0.00 0.00 0.00 89 1013.1
20260506200431 8 41 8.0 17.7 0.00 0.00 0.00 88 1013.0
20260506195432 8 13 6.4 14.5 0.00 0.00 0.00 87 1012.9
20260506194434 8 24 6.4 17.7 0.00 0.00 0.00 86 1012.8
20260506193911 8 34 6.4 17.7 0.00 0.00 0.00 86 1012.7
20260506192431 8 31 6.4 14.5 0.00 0.00 0.00 85 1012.6
20260506191432 9 26 9.7 16.1 0.00 0.00 0.00 84 1012.4
20260506190434 9 12 12.9 20.9 0.00 0.00 0.00 83 1012.3
20260506185432 10 44 11.3 24.1 0.00 0.00 0.00 82 1012.2
20260506184431 10 31 11.3 20.9 0.00 0.00 0.00 81 1012.2
20260506183432 10 33 9.7 17.7 0.00 0.00 0.00 79 1012.0
20260506182433 10 321 8.0 22.5 0.00 0.00 0.00 77 1011.9
20260506181431 11 31 9.7 22.5 0.00 0.00 0.00 75 1011.8
20260506180431 11 41 6.4 25.7 0.00 0.00 0.00 73 1011.6
20260506175920 11 26 11.3 27.4 0.00 0.00 0.00 72 1011.6
20260506174432 12 41 8.0 25.7 0.00 0.00 0.00 71 1011.5
20260506173921 12 48 6.4 27.4 0.00 0.00 0.00 71 1011.3
20260506172434 12 10 12.9 22.5 0.00 0.00 0.00 68 1011.2
20260506171913 12 34 9.7 20.9 0.00 0.00 0.00 66 1011.2
20260506170916 13 33 11.3 25.7 0.00 0.00 0.00 65 1011.1
20260506165433 13 57 16.1 27.4 0.00 0.00 0.00 65 1011.0
20260506164431 13 40 11.3 25.7 0.00 0.00 0.00 64 1011.1
20260506163429 13 41 9.7 30.6 0.00 0.00 0.00 63 1011.1
20260506162428 13 30 16.1 30.6 0.00 0.00 0.00 62 1011.1
20260506161429 13 74 9.7 27.4 0.00 0.00 0.00 64 1011.1
20260506160428 13 34 16.1 27.4 0.00 0.00 0.00 67 1011.1
20260506155425 12 34 12.9 27.4 0.00 0.00 0.00 67 1010.9
20260506154424 -17 67 12.9 30.6 0.00 0.00 0.00 1010.9
20260506153421 -17 24 12.9 27.4 0.00 0.00 0.00 1010.9
20260506152423 14 33 16.1 29.0 0.00 0.00 0.00 68 1011.0
20260506151418 13 51 14.5 27.4 0.00 0.00 0.00 68 1010.8
20260506150418 -17 51 12.9 25.7 0.00 0.00 0.00 1010.8
20260506145418 13 34 16.1 25.7 0.00 0.00 0.00 68 1010.8
20260506144418 15 27 16.1 25.7 0.00 0.00 0.00 67 1010.7
20260506143416 15 55 17.7 30.6 0.00 0.00 0.00 65 1010.7
20260506142417 15 44 16.1 27.4 0.00 0.00 0.00 67 1010.6
20260506141413 15 38 17.7 30.6 0.00 0.00 0.00 69 1010.6
20260506140410 14 30 14.5 27.4 0.00 0.00 0.00 71 1010.7
20260506135410 13 36 12.9 30.6 0.00 0.00 0.00 69 1010.7
20260506134847 15 34 12.9 30.6 0.00 0.00 0.00 68 1010.6
20260506133407 15 31 16.1 30.6 0.00 0.00 0.00 67 1010.4
20260506132409 15 33 19.3 29.0 0.00 0.00 0.00 68 1010.6
20260506131407 15 54 14.5 27.4 0.00 0.00 0.00 68 1010.5
20260506130408 14 37 16.1 33.8 0.00 0.00 0.00 68 1010.4
20260506124406 15 43 12.9 32.2 0.00 0.00 0.00 65 1010.3
20260506123406 15 65 11.3 33.8 0.00 0.00 0.00 65 1010.3
20260506122405 15 69 17.7 33.8 0.00 0.00 0.00 63 1010.3
20260506121850 15 7 14.5 32.2 0.00 0.00 0.00 66 1010.3
20260506120407 15 34 17.7 35.4 0.00 0.00 0.00 66 1010.1
20260506115413 15 26 16.1 27.4 0.00 0.00 0.00 67 1010.2
20260506114403 15 57 12.9 29.0 0.00 0.00 0.00 65 1010.2
20260506112406 14 60 16.1 27.4 0.00 0.00 0.00 67 1010.1
20260506111404 14 17 11.3 30.6 0.00 0.00 0.00 68 1010.1
20260506110405 15 36 14.5 24.1 0.00 0.00 0.00 68 1010.1
20260506105405 15 43 11.3 29.0 0.00 0.00 0.00 65 1010.0
20260506104403 16 78 14.5 25.7 0.00 0.00 0.00 69 1010.1
20260506103404 15 82 9.7 25.7 0.00 0.00 0.00 63 1010.1
20260506102407 15 14 19.3 35.4 0.00 0.00 0.00 68 1009.9
20260506101405 15 16 16.1 27.4 0.00 0.00 0.00 71 1010.0
20260506100403 14 38 9.7 24.1 0.00 0.00 0.00 71 1010.0
20260506095403 14 38 9.7 20.9 0.00 0.00 0.00 74 1009.9
20260506094403 13 43 11.3 20.9 0.00 0.00 0.00 71 1009.9
20260506093402 13 38 16.1 30.6 0.00 0.00 0.00 73 1009.8
20260506092402 13 65 11.3 32.2 0.00 0.00 0.00 72 1009.8
20260506091847 13 72 11.3 24.1 0.00 0.00 0.00 71 1009.8
20260506090410 14 27 9.7 24.1 0.00 0.00 0.00 74 1009.7
20260506085400 13 43 12.9 30.6 0.00 0.00 0.00 73 1009.9
20260506084359 13 27 14.5 29.0 0.00 0.00 0.00 73 1009.8
20260506083400 12 24 8.0 29.0 0.00 0.00 0.00 73 1009.7
20260506082834 12 54 14.5 25.7 0.00 0.00 0.00 75 1009.7
20260506081359 12 64 9.7 25.7 0.00 0.00 0.00 77 1009.6
20260506080356 12 51 14.5 27.4 0.00 0.00 0.00 79 1009.6
20260506073358 12 16 14.5 22.5 0.00 0.00 0.00 83 1009.5
20260506072409 11 62 9.7 19.3 0.00 0.00 0.00 84 1009.5
20260506071357 11 33 9.7 22.5 0.00 0.00 0.00 85 1009.6
20260506070357 11 37 14.5 25.7 0.00 0.00 0.00 86 1009.5
20260506062229 10 27 9.7 20.9 0.00 0.00 0.00 92 1009.3
20260506060751 10 40 9.7 19.3 0.00 0.00 0.00 92 1009.3